When you browse on this site, cookies collect data to enhance your experience and personalize the content and advertising you see.
Visit our Privacy Policy to learn more. By continuing to use the site, you agree to this use of cookies and data.
EN

Hourly Weather Apushka

Today, 6 August, Thursday

Time Temperature Precipitation Wind Pressure Humidity
00:00 +18°C° 0 mm 2 mps 751 mmHg 87%
01:00 +17°C° 0 mm 2 mps 751 mmHg 88%
02:00 +17°C° 0 mm 2 mps 751 mmHg 89%
03:00 +17°C° 0 mm 2 mps 751 mmHg 88%
04:00 +17°C° 0 mm 2 mps 751 mmHg 88%
05:00 +17°C° 0 mm 2 mps 751 mmHg 87%
06:00 +17°C° 0 mm 2 mps 751 mmHg 86%
07:00 +19°C° 0 mm 2 mps 751 mmHg 80%
08:00 +20°C° 0 mm 3 mps 752 mmHg 75%
09:00 +22°C° 0 mm 3 mps 752 mmHg 68%
10:00 +25°C° 0 mm 3 mps 752 mmHg 63%
11:00 +26°C° 0 mm 3 mps 752 mmHg 58%
12:00 +27°C° 0 mm 3 mps 752 mmHg 53%
13:00 +28°C° 0 mm 3 mps 752 mmHg 51%
14:00 +28°C° 0 mm 3 mps 752 mmHg 50%
15:00 +28°C° 0 mm 3 mps 752 mmHg 48%
16:00 +28°C° 0 mm 3 mps 752 mmHg 53%
17:00 +27°C° 0 mm 2 mps 751 mmHg 58%
18:00 +26°C° 0 mm 2 mps 751 mmHg 63%
19:00 +24°C° 0 mm 2 mps 751 mmHg 67%
20:00 +23°C° 0 mm 2 mps 751 mmHg 71%
21:00 +20°C° 0 mm 2 mps 751 mmHg 75%
22:00 +20°C° 0 mm 2 mps 751 mmHg 77%
23:00 +19°C° 0 mm 2 mps 751 mmHg 80%

Tomorrow, 7 August, Friday

Time Temperature Precipitation Wind Pressure Humidity
00:00 +19°C° 0 mm 2 mps 751 mmHg 82%
01:00 +18°C° 0 mm 2 mps 751 mmHg 85%
02:00 +18°C° 0 mm 2 mps 751 mmHg 88%
03:00 +18°C° 0 mm 2 mps 752 mmHg 90%
04:00 +18°C° 0 mm 2 mps 751 mmHg 90%
05:00 +18°C° 0 mm 3 mps 751 mmHg 90%
06:00 +18°C° 0 mm 3 mps 751 mmHg 91%
07:00 +19°C° 0 mm 3 mps 751 mmHg 87%
08:00 +21°C° 0 mm 4 mps 751 mmHg 83%
09:00 +22°C° 0 mm 4 mps 752 mmHg 78%
10:00 +23°C° 0 mm 5 mps 752 mmHg 72%
11:00 +25°C° 0 mm 5 mps 752 mmHg 66%
12:00 +26°C° 0 mm 6 mps 752 mmHg 59%
13:00 +26°C° 0 mm 6 mps 751 mmHg 56%
14:00 +26°C° 0 mm 6 mps 751 mmHg 54%
15:00 +26°C° 0 mm 6 mps 751 mmHg 51%
16:00 +26°C° 0 mm 5 mps 751 mmHg 54%
17:00 +25°C° 0 mm 5 mps 751 mmHg 56%
18:00 +23°C° 0 mm 4 mps 751 mmHg 59%
19:00 +22°C° 0 mm 4 mps 751 mmHg 62%
20:00 +20°C° 0 mm 4 mps 751 mmHg 66%
21:00 +19°C° 0 mm 4 mps 751 mmHg 69%
22:00 +18°C° 0 mm 3 mps 752 mmHg 73%
23:00 +18°C° 0 mm 3 mps 752 mmHg 76%

Day after tomorrow, 8 August, Saturday

Time Temperature Precipitation Wind Pressure Humidity
00:00 +17°C° 0 mm 3 mps 752 mmHg 79%
01:00 +16°C° 0 mm 3 mps 752 mmHg 82%
02:00 +16°C° 0 mm 3 mps 751 mmHg 84%
03:00 +14°C° 0 mm 3 mps 751 mmHg 86%
04:00 +14°C° 0 mm 3 mps 751 mmHg 85%
05:00 +14°C° 0 mm 3 mps 751 mmHg 84%
06:00 +14°C° 0 mm 3 mps 751 mmHg 83%
07:00 +17°C° 0 mm 3 mps 751 mmHg 76%
08:00 +19°C° 0 mm 4 mps 751 mmHg 69%
09:00 +20°C° 0 mm 4 mps 752 mmHg 62%
10:00 +21°C° 0 mm 4 mps 751 mmHg 58%
11:00 +22°C° 0 mm 5 mps 751 mmHg 55%
12:00 +23°C° 0 mm 5 mps 751 mmHg 51%
13:00 +25°C° 0 mm 5 mps 751 mmHg 51%
14:00 +25°C° 0 mm 5 mps 750 mmHg 50%
15:00 +25°C° 0 mm 5 mps 750 mmHg 50%
16:00 +23°C° 0 mm 4 mps 750 mmHg 54%
17:00 +24°C° 0 mm 3 mps 749 mmHg 59%
18:00 +22°C° 0 mm 3 mps 749 mmHg 63%
19:00 +21°C° 0 mm 3 mps 749 mmHg 69%
20:00 +19°C° 0 mm 3 mps 749 mmHg 75%
21:00 +17°C° 0 mm 2 mps 749 mmHg 81%
22:00 +17°C° 0 mm 2 mps 749 mmHg 82%
23:00 +16°C° 0 mm 2 mps 748 mmHg 82%

9 August, Sunday

Time Temperature Precipitation Wind Pressure Humidity
00:00 +16°C° 0 mm 2 mps 748 mmHg 83%
01:00 +16°C° 0 mm 2 mps 748 mmHg 85%
02:00 +15°C° 0 mm 2 mps 748 mmHg 87%
03:00 +15°C° 0 mm 2 mps 748 mmHg 89%
04:00 +15°C° 0 mm 2 mps 748 mmHg 90%
05:00 +14°C° 0 mm 3 mps 748 mmHg 90%
06:00 +14°C° 0 mm 3 mps 748 mmHg 90%
07:00 +17°C° 0 mm 3 mps 748 mmHg 83%
08:00 +19°C° 0 mm 3 mps 748 mmHg 77%
09:00 +20°C° 0 mm 4 mps 748 mmHg 70%
10:00 +21°C° 0 mm 4 mps 748 mmHg 65%
11:00 +22°C° 0 mm 4 mps 748 mmHg 60%
12:00 +25°C° 0 mm 4 mps 748 mmHg 55%
13:00 +25°C° 0 mm 4 mps 747 mmHg 52%
14:00 +25°C° 0 mm 4 mps 747 mmHg 49%
15:00 +26°C° 0 mm 4 mps 747 mmHg 46%
16:00 +26°C° 0 mm 3 mps 747 mmHg 50%
17:00 +25°C° 0 mm 3 mps 746 mmHg 54%
18:00 +25°C° 0 mm 2 mps 746 mmHg 58%
19:00 +23°C° 0 mm 2 mps 746 mmHg 66%
20:00 +20°C° 0 mm 2 mps 746 mmHg 74%
21:00 +18°C° 0 mm 2 mps 746 mmHg 82%
22:00 +18°C° 0 mm 2 mps 746 mmHg 85%
23:00 +17°C° 0 mm 2 mps 746 mmHg 87%

10 August, Monday

Time Temperature Precipitation Wind Pressure Humidity
00:00 +17°C° 0 mm 2 mps 746 mmHg 90%
01:00 +16°C° 0 mm 2 mps 746 mmHg 92%
02:00 +16°C° 0 mm 2 mps 746 mmHg 94%
03:00 +15°C° 0 mm 2 mps 746 mmHg 95%
04:00 +15°C° 0 mm 2 mps 746 mmHg 93%
05:00 +15°C° 0 mm 2 mps 747 mmHg 91%
06:00 +14°C° 0 mm 3 mps 747 mmHg 89%
07:00 +16°C° 0 mm 3 mps 747 mmHg 81%
08:00 +18°C° 0 mm 3 mps 747 mmHg 73%
09:00 +19°C° 0 mm 3 mps 747 mmHg 64%
10:00 +20°C° 0 mm 4 mps 747 mmHg 60%
11:00 +21°C° 0 mm 4 mps 748 mmHg 56%
12:00 +22°C° 0 mm 4 mps 748 mmHg 51%
13:00 +22°C° 0 mm 4 mps 748 mmHg 51%
14:00 +22°C° 0 mm 4 mps 747 mmHg 50%
15:00 +22°C° 0 mm 4 mps 747 mmHg 49%
16:00 +22°C° 0 mm 4 mps 747 mmHg 52%
17:00 +21°C° 0 mm 3 mps 747 mmHg 54%
18:00 +21°C° 0 mm 3 mps 747 mmHg 56%
19:00 +19°C° 0 mm 2 mps 747 mmHg 60%
20:00 +17°C° 0 mm 2 mps 747 mmHg 64%
21:00 +16°C° 0 mm 1 mps 748 mmHg 68%
22:00 +15°C° 0 mm 1 mps 748 mmHg 70%
23:00 +15°C° 0 mm 1 mps 748 mmHg 72%

11 August, Tuesday

Time Temperature Precipitation Wind Pressure Humidity
00:00 +13°C° 0 mm 0 mps 748 mmHg 75%
01:00 +14°C° 0 mm 1 mps 748 mmHg 75%
02:00 +14°C° 0 mm 1 mps 748 mmHg 75%
03:00 +14°C° 0 mm 1 mps 748 mmHg 76%
04:00 +14°C° 0 mm 1 mps 748 mmHg 76%
05:00 +14°C° 0 mm 1 mps 748 mmHg 75%
06:00 +14°C° 0 mm 1 mps 748 mmHg 75%
07:00 +16°C° 0 mm 2 mps 748 mmHg 69%
08:00 +18°C° 0 mm 2 mps 748 mmHg 64%
09:00 +20°C° 0 mm 2 mps 748 mmHg 58%
10:00 +20°C° 0 mm 2 mps 747 mmHg 59%
11:00 +20°C° 0 mm 2 mps 747 mmHg 60%
12:00 +20°C° 0 mm 2 mps 747 mmHg 61%
13:00 +21°C° 0 mm 2 mps 747 mmHg 59%
14:00 +22°C° 0 mm 3 mps 746 mmHg 57%
15:00 +24°C° 0 mm 3 mps 746 mmHg 55%
16:00 +22°C° 0.3 mm 3 mps 746 mmHg 61%
17:00 +21°C° 0.3 mm 3 mps 746 mmHg 68%
18:00 +21°C° 0.3 mm 3 mps 746 mmHg 75%
19:00 +20°C° 0.5 mm 3 mps 745 mmHg 81%
20:00 +19°C° 0.5 mm 3 mps 745 mmHg 87%
21:00 +18°C° 0.5 mm 3 mps 745 mmHg 93%
22:00 +17°C° 0 mm 3 mps 745 mmHg 94%
23:00 +16°C° 0 mm 3 mps 745 mmHg 96%
Show more